CW4740 Weather Reports


Display with metric or nautical units.
time (UTC)temp
F
wind
direction
speed
MPH
gust
MPH
rain 1hr
in
rain 24hr
in
rain mn
in
humidity
%
barometer
mb
20260906222248 86 167 2.0 5.0 0.00 0.03 0.00 75 1010.8
20260906221722 86 150 3.0 5.0 0.00 0.03 0.00 75 1010.9
20260906221217 86 109 2.0 6.0 0.00 0.03 0.00 76 1011.0
20260906220632 86 109 3.0 7.0 0.00 0.03 0.00 76 1011.1
20260906220129 86 147 4.0 10.0 0.00 0.03 0.00 76 1011.1
20260906215659 86 123 5.0 11.0 0.00 0.03 0.00 76 1011.1
20260906215155 86 123 6.0 11.0 0.00 0.03 0.00 76 1011.1
20260906214632 86 124 5.0 10.0 0.00 0.03 0.00 76 1011.3
20260906214151 86 153 5.0 11.0 0.00 0.03 0.00 76 1011.4
20260906213727 86 140 6.0 10.0 0.00 0.03 0.00 75 1011.7
20260906213203 87 123 5.0 11.0 0.00 0.03 0.00 74 1011.8
20260906212659 88 108 5.0 13.0 0.00 0.03 0.00 73 1011.7
20260906212136 90 107 7.0 13.0 0.00 0.03 0.00 70 1011.8
20260906211652 90 126 3.0 7.0 0.00 0.03 0.00 68 1011.8
20260906211209 90 162 3.0 7.0 0.00 0.03 0.00 68 1011.8
20260906210645 89 231 1.0 6.0 0.00 0.03 0.00 68 1012.0
20260906210143 89 254 3.0 6.0 0.00 0.04 0.00 68 1012.0
20260906205632 89 239 3.0 6.0 0.00 0.04 0.00 69 1012.0
20260906205130 88 184 3.0 9.0 0.00 0.04 0.00 70 1011.9
20260906204629 88 207 4.0 10.0 0.00 0.04 0.00 70 1012.0
20260906204228 87 254 4.0 10.0 0.00 0.04 0.00 72 1011.9
20260906203704 87 169 6.0 10.0 0.00 0.04 0.00 72 1012.0
20260906203141 86 138 6.0 11.0 0.00 0.04 0.00 74 1012.1
20260906202659 86 183 3.0 11.0 0.00 0.04 0.00 74 1012.3
20260906202155 86 144 5.0 11.0 0.00 0.04 0.00 73 1012.5
20260906201732 87 136 6.0 15.0 0.00 0.04 0.00 74 1012.6
20260906201147 88 141 6.0 15.0 0.00 0.04 0.00 72 1012.7
20260906200704 90 139 6.0 13.0 0.00 0.04 0.00 72 1012.7
20260906200241 91 137 7.0 11.0 0.00 0.04 0.00 70 1012.7
20260906200159 91 137 7.0 11.0 0.00 0.04 0.00 70 1012.7
20260906195708 92 196 4.0 11.0 0.00 0.04 0.00 69 1012.9
20260906195205 92 229 3.0 10.0 0.00 0.04 0.00 62 1012.9
20260906194642 92 182 4.0 10.0 0.00 0.04 0.00 62 1012.9
20260906194138 93 224 3.0 10.0 0.00 0.04 0.00 62 1012.8
20260906193737 93 206 3.0 10.0 0.00 0.04 0.00 62 1012.8
20260906193151 93 252 3.0 9.0 0.00 0.04 0.00 61 1012.8
20260906192643 93 254 6.0 9.0 0.00 0.04 0.00 61 1012.8
20260906192144 93 276 4.0 9.0 0.00 0.04 0.00 63 1012.8
20260906191717 93 245 3.0 9.0 0.00 0.04 0.00 61 1012.8
20260906191635 93 245 3.0 9.0 0.00 0.04 0.00 61 1012.8
20260906191133 92 266 3.0 7.0 0.00 0.04 0.00 63 1012.7
20260906190635 92 324 4.0 8.0 0.00 0.04 0.00 62 1012.7
20260906190153 92 243 3.0 8.0 0.00 0.04 0.00 62 1012.9
20260906185739 91 265 3.0 8.0 0.00 0.04 0.00 63 1013.0
20260906185154 91 327 3.0 8.0 0.00 0.04 0.00 64 1013.1
20260906184633 91 268 1.0 7.0 0.00 0.04 0.00 65 1013.1
20260906184231 91 258 3.0 7.0 0.00 0.04 0.00 64 1013.2
20260906183727 92 254 4.0 7.0 0.00 0.04 0.00 64 1013.3
20260906183203 92 270 3.0 10.0 0.00 0.04 0.00 62 1013.5
20260906182658 92 265 2.0 10.0 0.00 0.04 0.00 63 1013.5
20260906182134 92 268 2.0 12.0 0.00 0.04 0.00 64 1013.6
20260906181631 92 267 5.0 12.0 0.00 0.04 0.00 62 1013.8
20260906181208 93 246 5.0 11.0 0.00 0.04 0.00 62 1013.7
20260906180645 93 252 2.0 9.0 0.00 0.04 0.00 63 1013.7
20260906180143 92 260 3.0 9.0 0.00 0.24 0.00 63 1013.8
20260906175652 92 260 4.0 8.0 0.00 0.24 0.00 63 1013.8
20260906175208 91 26 3.0 9.0 0.00 0.24 0.00 63 1013.7
20260906174726 91 273 5.0 9.0 0.00 0.24 0.00 65 1013.7
20260906174643 91 273 5.0 9.0 0.00 0.24 0.00 65 1013.7
20260906174201 91 327 4.0 8.0 0.00 0.24 0.00 67 1013.7
20260906173637 90 196 4.0 9.0 0.00 0.24 0.00 68 1013.6
20260906173134 90 286 4.0 9.0 0.00 0.24 0.00 67 1013.7
20260906172632 90 322 4.0 8.0 0.00 0.24 0.00 68 1013.7
20260906172129 90 331 4.0 9.0 0.00 0.24 0.00 69 1013.7
20260906171632 90 241 4.0 10.0 0.00 0.24 0.00 70 1013.7
20260906171130 90 254 4.0 8.0 0.00 0.24 0.00 69 1013.7
20260906170744 90 313 3.0 10.0 0.00 0.24 0.00 69 1013.7
20260906170702 90 313 3.0 10.0 0.00 0.24 0.00 69 1013.7
20260906170159 90 319 2.0 10.0 0.00 0.24 0.00 68 1013.9
20260906165628 90 249 4.0 9.0 0.00 0.24 0.00 68 1013.8
20260906165227 90 304 2.0 11.0 0.00 0.24 0.00 70 1013.7
20260906164643 90 249 5.0 11.0 0.00 0.24 0.00 69 1013.8
20260906164219 90 254 5.0 10.0 0.00 0.24 0.00 69 1013.6
20260906163714 90 259 5.0 10.0 0.00 0.24 0.00 69 1013.6
20260906163229 90 268 5.0 9.0 0.00 0.24 0.00 70 1013.7
20260906162645 89 315 3.0 9.0 0.00 0.24 0.00 70 1013.9
20260906162142 89 220 5.0 10.0 0.00 0.24 0.00 69 1013.9
20260906161639 89 250 6.0 10.0 0.00 0.24 0.00 70 1013.8
20260906161157 89 240 4.0 10.0 0.00 0.24 0.00 72 1014.0
20260906160654 89 240 2.0 9.0 0.00 0.24 0.00 74 1014.2
20260906160151 88 282 3.0 10.0 0.00 0.24 0.00 74 1014.2
20260906155640 88 336 5.0 10.0 0.00 0.24 0.00 74 1014.3
20260906155136 88 5 3.0 8.0 0.00 0.24 0.00 75 1014.4
20260906154632 88 326 4.0 9.0 0.00 0.24 0.00 75 1014.3
20260906154229 88 259 3.0 9.0 0.00 0.24 0.00 76 1014.3
20260906153645 88 294 5.0 9.0 0.00 0.24 0.00 77 1014.4
20260906153242 88 271 3.0 9.0 0.00 0.24 0.00 77 1014.4
20260906153139 88 271 3.0 9.0 0.00 0.24 0.00 77 1014.4
20260906152655 87 265 4.0 8.0 0.00 0.24 0.00 78 1014.6
20260906152132 87 336 4.0 9.0 0.00 0.24 0.00 78 1014.5
20260906151650 87 242 5.0 10.0 0.00 0.24 0.00 78 1014.6
20260906151146 87 272 4.0 12.0 0.00 0.24 0.00 78 1014.6
20260906150724 87 239 5.0 12.0 0.00 0.24 0.00 77 1014.6
20260906150240 87 296 4.0 8.0 0.00 0.24 0.00 78 1014.7
20260906150158 87 296 4.0 8.0 0.00 0.24 0.00 78 1014.7
20260906145722 86 259 5.0 8.0 0.00 0.24 0.00 78 1014.7
20260906145640 86 259 5.0 8.0 0.00 0.24 0.00 78 1014.7
20260906145159 86 277 4.0 8.0 0.00 0.24 0.00 78 1014.6
20260906144640 86 304 3.0 11.0 0.00 0.24 0.00 78 1014.7
20260906144139 86 267 5.0 11.0 0.00 0.24 0.00 78 1014.7
20260906143636 86 255 4.0 10.0 0.00 0.24 0.00 78 1014.7
20260906143134 86 254 4.0 10.0 0.00 0.24 0.00 79 1014.6
20260906142632 85 250 5.0 10.0 0.00 0.24 0.00 80 1014.6
20260906142249 85 263 5.0 10.0 0.00 0.24 0.00 81 1014.6
20260906141702 85 251 3.0 9.0 0.00 0.24 0.00 82 1014.6
20260906141156 85 277 1.0 9.0 0.00 0.24 0.00 82 1014.6
20260906140631 85 257 5.0 9.0 0.00 0.24 0.00 81 1014.6
20260906140128 85 263 6.0 9.0 0.00 0.24 0.00 81 1014.5
20260906135637 85 323 3.0 7.0 0.00 0.24 0.00 82 1014.5
20260906135235 84 277 2.0 7.0 0.00 0.24 0.00 82 1014.5
20260906135153 84 277 2.0 7.0 0.00 0.24 0.00 82 1014.5
20260906134630 84 324 0.0 7.0 0.00 0.24 0.00 84 1014.5
20260906134148 84 290 1.0 7.0 0.00 0.24 0.00 83 1014.4
20260906133705 84 264 2.0 6.0 0.00 0.24 0.00 83 1014.3
20260906133142 84 254 3.0 6.0 0.00 0.24 0.00 82 1014.4
20260906132641 84 300 3.0 5.0 0.00 0.24 0.00 82 1014.5
20260906132219 84 214 2.0 5.0 0.00 0.24 0.00 84 1014.5
20260906131715 83 294 1.0 6.0 0.00 0.24 0.00 85 1014.4
20260906131131 83 313 1.0 6.0 0.00 0.24 0.00 86 1014.4
20260906130650 83 242 1.0 3.0 0.00 0.24 0.00 87 1014.3
20260906130228 83 275 2.0 4.0 0.00 0.24 0.00 87 1014.3
20260906125635 82 271 1.0 5.0 0.00 0.24 0.00 88 1014.3
20260906125133 82 81 1.0 5.0 0.00 0.24 0.00 89 1014.3
20260906124652 82 81 0.0 3.0 0.00 0.24 0.00 90 1014.2
20260906124148 81 81 0.0 3.0 0.00 0.24 0.00 91 1014.2
20260906123644 81 81 1.0 3.0 0.00 0.24 0.00 92 1014.2
20260906123142 80 81 0.0 3.0 0.00 0.24 0.00 92 1014.2
20260906122640 80 81 0.0 0.0 0.00 0.24 0.00 94 1014.2
20260906122158 80 81 0.0 0.0 0.00 0.24 0.00 94 1014.1
20260906121715 79 81 0.0 0.0 0.00 0.24 0.00 95 1014.0
20260906121633 79 81 0.0 0.0 0.00 0.24 0.00 95 1014.0
20260906121131 79 81 0.0 0.0 0.00 0.24 0.00 95 1013.9
20260906120629 79 81 0.0 0.0 0.00 0.24 0.00 95 1014.0
20260906120208 79 81 0.0 0.0 0.00 0.24 0.00 96 1014.1
20260906115656 78 81 0.0 0.0 0.00 0.24 0.00 96 1013.9
20260906115232 78 81 0.0 0.0 0.00 0.24 0.00 96 1013.8
20260906115150 78 81 0.0 0.0 0.00 0.24 0.00 96 1013.8
20260906114742 78 81 0.0 0.0 0.00 0.24 0.00 96 1013.7
20260906114236 78 81 0.0 0.0 0.00 0.24 0.00 96 1013.7
20260906114132 78 81 0.0 0.0 0.00 0.24 0.00 96 1013.7
20260906113729 78 81 0.0 3.0 0.00 0.24 0.00 96 1013.6
20260906113144 78 81 1.0 4.0 0.00 0.24 0.00 96 1013.4
20260906112640 77 81 2.0 4.0 0.00 0.24 0.00 96 1013.4
20260906112138 77 81 1.0 4.0 0.00 0.24 0.00 96 1013.3
20260906111634 77 81 0.0 0.0 0.00 0.24 0.00 96 1013.2
20260906111132 77 81 0.0 0.0 0.00 0.24 0.00 96 1013.1
20260906110650 77 80 0.0 0.0 0.00 0.24 0.00 96 1013.1
20260906110148 77 80 0.0 0.0 0.00 0.24 0.00 96 1012.9
20260906105717 77 81 0.0 0.0 0.00 0.24 0.00 96 1012.9
20260906105154 77 80 0.0 0.0 0.00 0.24 0.00 96 1012.8
20260906104649 77 81 0.0 0.0 0.00 0.24 0.00 96 1012.7
20260906104203 77 81 0.0 0.0 0.00 0.24 0.00 96 1012.6
20260906103638 77 81 0.0 0.0 0.00 0.24 0.00 96 1012.4
20260906103135 77 81 0.0 0.0 0.00 0.24 0.00 96 1012.4
20260906102631 77 81 0.0 0.0 0.00 0.24 0.00 96 1012.4
20260906102208 77 81 0.0 0.0 0.00 0.24 0.00 96 1012.4
20260906101703 77 80 0.0 0.0 0.00 0.24 0.00 96 1012.3
20260906101220 77 81 0.0 0.0 0.00 0.24 0.00 96 1012.2
20260906100656 77 81 0.0 0.0 0.00 0.24 0.00 96 1012.2
20260906100153 77 81 0.0 0.0 0.00 0.24 0.00 96 1012.1
20260906095639 77 81 0.0 0.0 0.00 0.24 0.00 96 1012.0
20260906095138 77 80 0.0 0.0 0.00 0.24 0.00 96 1012.0
20260906094656 77 81 0.0 0.0 0.00 0.24 0.00 96 1011.9
20260906094133 77 80 0.0 0.0 0.00 0.24 0.00 96 1011.9
20260906093634 77 81 0.0 0.0 0.00 0.24 0.00 96 1011.9
20260906093131 77 81 0.0 0.0 0.00 0.24 0.00 95 1012.0
20260906092628 77 81 0.0 0.0 0.00 0.24 0.00 95 1012.0
20260906092145 77 81 0.0 0.0 0.00 0.24 0.00 95 1011.9
20260906091722 77 81 0.0 0.0 0.00 0.24 0.00 95 1011.9
20260906091214 77 81 0.0 0.0 0.00 0.24 0.00 95 1011.9
20260906090649 77 80 0.0 0.0 0.00 0.24 0.00 95 1011.9
20260906090203 77 81 0.0 0.0 0.00 0.42 0.00 95 1012.0
20260906085650 77 80 0.0 0.0 0.00 0.42 0.00 95 1012.1
20260906085127 77 81 0.0 0.0 0.00 0.42 0.00 95 1012.2
20260906084645 77 81 0.0 0.0 0.00 0.42 0.00 95 1012.2
20260906084202 77 81 0.0 0.0 0.00 0.42 0.00 95 1012.2
20260906083640 77 81 0.0 0.0 0.00 0.42 0.00 95 1012.2
20260906083240 77 81 0.0 0.0 0.00 0.42 0.00 95 1012.2
20260906083158 77 81 0.0 0.0 0.00 0.42 0.00 95 1012.2
20260906082655 77 81 0.0 0.0 0.00 0.42 0.00 95 1012.3
20260906082210 77 81 0.0 0.0 0.00 0.42 0.00 95 1012.4
20260906081706 77 81 0.0 0.0 0.00 0.42 0.00 95 1012.5
20260906081143 77 81 0.0 0.0 0.00 0.42 0.00 95 1012.4
20260906080641 76 81 0.0 0.0 0.00 0.42 0.00 95 1012.2
20260906080159 76 80 0.0 0.0 0.00 0.42 0.00 95 1012.2
20260906075705 76 81 0.0 0.0 0.00 0.42 0.00 95 1012.1
20260906075142 76 81 0.0 0.0 0.00 0.42 0.00 94 1012.1
20260906074719 76 81 0.0 0.0 0.00 0.42 0.00 94 1012.1
20260906074132 77 81 0.0 0.0 0.00 0.42 0.00 94 1012.2
20260906073649 77 81 0.0 0.0 0.00 0.42 0.00 94 1012.2
20260906073225 77 81 0.0 0.0 0.00 0.42 0.00 94 1012.3
20260906073142 77 81 0.0 0.0 0.00 0.42 0.00 94 1012.3
20260906072639 77 81 0.0 0.0 0.00 0.42 0.00 94 1012.4
20260906072152 77 81 0.0 3.0 0.00 0.42 0.00 94 1012.4
20260906071629 77 81 0.0 6.0 0.00 0.42 0.00 94 1012.3
20260906071245 77 81 3.0 7.0 0.00 0.42 0.00 94 1012.3
20260906070640 77 81 3.0 5.0 0.00 0.42 0.00 94 1012.3
20260906070156 77 81 2.0 3.0 0.00 0.42 0.00 94 1012.3
20260906065705 77 81 0.0 0.0 0.00 0.42 0.00 94 1012.5
20260906065201 77 81 0.0 0.0 0.00 0.42 0.00 94 1012.7
20260906064712 77 81 0.0 0.0 0.00 0.42 0.00 94 1012.7
20260906064149 77 81 0.0 3.0 0.00 0.42 0.00 94 1012.8
20260906063628 77 81 2.0 3.0 0.00 0.42 0.00 94 1012.9
20260906063221 77 81 0.0 2.0 0.00 0.42 0.00 93 1012.9
20260906063139 77 81 0.0 2.0 0.00 0.42 0.00 93 1012.9
20260906062637 77 81 1.0 2.0 0.00 0.42 0.00 93 1012.7
20260906062155 77 81 0.0 1.0 0.00 0.42 0.00 93 1012.7
20260906061654 77 81 0.0 2.0 0.00 0.42 0.00 93 1012.8
20260906061135 77 81 1.0 4.0 0.00 0.42 0.00 93 1012.8
20260906060730 77 81 2.0 4.0 0.00 0.42 0.00 93 1012.9
20260906060129 77 81 1.0 3.0 0.00 0.42 0.00 93 1013.1
20260906055734 77 81 0.0 0.0 0.00 0.42 0.00 93 1013.2
20260906055208 77 333 0.0 0.0 0.00 0.42 0.00 93 1013.4
20260906054726 77 333 0.0 0.0 0.00 0.42 0.00 92 1013.6
20260906054223 77 333 0.0 2.0 0.00 0.42 0.00 92 1013.8
20260906054141 77 333 0.0 2.0 0.00 0.42 0.00 92 1013.8
20260906053638 77 333 0.0 4.0 0.00 0.42 0.00 92 1013.8
20260906053155 77 333 2.0 5.0 0.00 0.42 0.00 92 1013.9
20260906052632 77 333 2.0 5.0 0.00 0.42 0.00 92 1013.9
20260906052130 77 337 2.0 5.0 0.00 0.42 0.00 93 1014.0
20260906051629 77 346 0.0 0.0 0.00 0.42 0.00 93 1014.3
20260906051146 77 346 0.0 0.0 0.00 0.42 0.00 93 1014.3
20260906050628 77 346 0.0 0.0 0.00 0.42 0.00 93 1014.2
20260906050146 77 346 0.0 0.0 0.00 0.42 0.00 93 1014.1
20260906045655 77 346 0.0 0.0 0.00 0.42 0.00 92 1014.2
20260906045132 77 346 0.0 0.0 0.00 0.42 0.00 93 1014.3
20260906044650 77 346 0.0 0.0 0.00 0.42 0.00 93 1014.2
20260906044207 77 346 0.0 0.0 0.00 0.42 0.00 92 1014.4
20260906043659 77 346 0.0 0.0 0.00 0.42 0.00 92 1014.3
20260906043214 77 346 0.0 0.0 0.00 0.42 0.00 92 1014.2
20260906042729 77 346 0.0 0.0 0.00 0.42 0.00 92 1014.1
20260906042203 77 346 0.0 0.0 0.00 0.42 0.00 92 1014.1
20260906041639 77 346 0.0 0.0 0.00 0.42 0.00 92 1014.0
20260906041216 77 346 0.0 0.0 0.00 0.42 0.00 92 1013.9
20260906041134 77 346 0.0 0.0 0.00 0.42 0.00 92 1013.9
20260906040632 77 346 0.0 0.0 0.00 0.42 0.00 92 1013.9
20260906040149 77 346 0.0 0.0 0.00 0.42 0.42 92 1013.9
20260906035657 77 346 0.0 0.0 0.00 0.42 0.42 92 1014.0
20260906035134 77 346 0.0 0.0 0.00 0.42 0.42 92 1014.0
20260906034631 77 346 0.0 0.0 0.00 0.42 0.42 92 1013.9
20260906034130 77 346 0.0 0.0 0.00 0.42 0.42 92 1013.9
20260906033706 77 346 0.0 0.0 0.00 0.42 0.42 92 1013.9
20260906033204 77 346 0.0 0.0 0.00 0.42 0.42 92 1013.8
20260906032701 77 346 0.0 0.0 0.00 0.42 0.42 92 1013.8
20260906032137 77 346 0.0 0.0 0.00 0.42 0.42 92 1013.8
20260906031654 77 346 0.0 0.0 0.00 0.42 0.42 92 1013.9
20260906031131 77 346 0.0 0.0 0.00 0.42 0.42 91 1014.1
20260906030727 77 346 0.0 0.0 0.00 0.42 0.42 91 1014.3
20260906030222 77 346 0.0 0.0 0.00 0.42 0.42 91 1014.3
20260906025708 77 346 0.0 0.0 0.00 0.42 0.42 91 1014.4
20260906025225 77 346 0.0 0.0 0.00 0.42 0.42 91 1014.6
20260906025142 77 346 0.0 0.0 0.00 0.42 0.42 91 1014.6
20260906024700 77 346 0.0 0.0 0.00 0.42 0.42 91 1014.8
20260906024217 77 346 0.0 0.0 0.00 0.42 0.42 91 1015.0
20260906023713 77 346 0.0 0.0 0.00 0.42 0.42 90 1015.0
20260906023149 77 346 0.0 0.0 0.00 0.42 0.42 90 1015.0
20260906022647 77 346 0.0 0.0 0.00 0.42 0.42 90 1015.2
20260906022144 77 346 0.0 0.0 0.00 0.42 0.42 90 1015.2
20260906021643 77 346 0.0 0.0 0.00 0.42 0.42 91 1015.2
20260906021242 77 346 0.0 0.0 0.00 0.42 0.42 91 1015.3
20260906020637 77 346 0.0 4.0 0.00 0.42 0.42 91 1015.3
20260906020136 77 346 1.0 4.0 0.00 0.42 0.42 92 1015.3
20260906015646 77 321 2.0 4.0 0.00 0.42 0.42 92 1015.4
20260906015205 77 304 3.0 6.0 0.00 0.42 0.42 93 1015.3
20260906014642 77 341 3.0 10.0 0.00 0.42 0.42 93 1015.4
20260906014139 77 325 5.0 10.0 0.00 0.42 0.42 93 1015.4
20260906013638 77 336 4.0 8.0 0.00 0.42 0.42 94 1015.3
20260906013235 78 296 4.0 8.0 0.00 0.42 0.42 94 1015.2
20260906013132 78 296 4.0 8.0 0.00 0.42 0.42 94 1015.2
20260906012649 78 320 2.0 5.0 0.00 0.42 0.42 94 1015.1
20260906012145 78 263 1.0 3.0 0.00 0.42 0.42 94 1015.0
20260906011703 78 254 0.0 0.0 0.00 0.42 0.42 95 1014.9
20260906011159 78 254 0.0 0.0 0.00 0.42 0.42 94 1014.9
20260906010636 78 254 0.0 0.0 0.00 0.42 0.42 94 1014.8
20260906010135 78 254 0.0 0.0 0.00 0.42 0.42 94 1014.8
20260906005703 78 254 0.0 0.0 0.00 0.42 0.42 94 1014.7
20260906005241 78 254 0.0 0.0 0.00 0.42 0.42 94 1014.7
20260906005137 78 254 0.0 0.0 0.00 0.42 0.42 94 1014.7
20260906004655 77 254 0.0 0.0 0.00 0.42 0.42 94 1014.7
20260906004130 77 254 0.0 0.0 0.00 0.42 0.42 94 1014.6
20260906003726 78 254 0.0 0.0 0.00 0.42 0.42 94 1014.5
20260906003236 78 254 0.0 0.0 0.00 0.42 0.42 94 1014.3
20260906003154 78 254 0.0 0.0 0.00 0.42 0.42 94 1014.3
20260906002652 78 254 0.0 4.0 0.00 0.42 0.42 94 1014.2
20260906002134 78 254 1.0 4.0 0.00 0.42 0.42 95 1014.0
20260906001631 78 263 2.0 5.0 0.00 0.42 0.42 95 1014.0
20260906001149 78 251 1.0 5.0 0.00 0.42 0.42 95 1013.9
20260906000707 78 262 1.0 6.0 0.00 0.42 0.42 95 1013.9
20260906000142 78 259 4.0 5.0 0.00 0.42 0.42 95 1014.0
20260905235629 78 262 1.0 4.0 0.00 0.42 0.42 95 1014.1
20260905235146 78 272 0.0 1.0 0.00 0.42 0.42 95 1014.0
20260905234642 78 272 0.0 0.0 0.00 0.42 0.42 95 1013.9
20260905234159 78 272 0.0 0.0 0.01 0.42 0.42 95 1013.7
20260905233635 78 272 0.0 0.0 0.01 0.42 0.42 94 1013.8
20260905233213 78 272 0.0 0.0 0.02 0.42 0.42 94 1013.7
20260905233130 78 272 0.0 0.0 0.02 0.42 0.42 94 1013.7
20260905232728 78 272 0.0 0.0 0.02 0.42 0.42 94 1013.8
20260905232219 78 272 0.0 0.0 0.03 0.42 0.42 94 1013.9
20260905232137 78 272 0.0 0.0 0.03 0.42 0.42 94 1013.9
20260905231654 78 272 0.0 0.0 0.03 0.42 0.42 94 1014.0
20260905231135 78 272 0.0 2.0 0.03 0.42 0.42 94 1014.0
20260905230633 78 272 0.0 2.0 0.03 0.42 0.42 94 1014.2
20260905230211 78 272 0.0 4.0 0.03 0.42 0.42 93 1014.1
20260905230129 78 272 0.0 4.0 0.03 0.42 0.42 93 1014.1
20260905225734 78 273 0.0 8.0 0.03 0.42 0.42 93 1014.3
20260905225652 78 273 0.0 8.0 0.03 0.42 0.42 93 1014.3
20260905225249 78 269 3.0 8.0 0.03 0.42 0.42 93 1014.2
20260905224644 78 252 4.0 12.0 0.03 0.42 0.42 92 1014.3
20260905224202 78 238 6.0 12.0 0.02 0.41 0.41 92 1014.3
20260905223700 79 234 4.0 10.0 0.02 0.41 0.41 91 1014.2
20260905223157 79 254 5.0 14.0 0.01 0.40 0.40 90 1014.2
20260905222653 80 241 6.0 16.0 0.01 0.40 0.40 89 1014.2